Lid_Strength_Index
6 6 6 6 6 7 6 6 6 6 6 6 5 5 5 5 5 5 5 3 5 8 6 5 6 8 8 8 10 7 7 7 8 10 10 11 11 10 13 11 15 15 16 16 15 17 18 8 9 12 7 7 7 6
6 6 6 7 7 7 6 6 6 6 6 6 6 6 6 5 5 5 7 3 1 6 6 4 4 4 5 5 6 7 7 8 6 10 10 9 11 10 12 15 10 15 13 14 14 14 8 7 9 8 8 9 6 5
6 6 7 7 8 8 7 7 7 6 6 6 6 5 5 5 5 6 6 5 5 7 7 5 4 3 2 3 2 8 6 5 6 5 8 10 13 9 14 12 13 10 8 12 12 10 10 8 7 6 5 5 5 4
6 7 7 8 8 8 8 7 7 6 6 6 5 5 5 5 5 5 6 5 4 7 10 6 2 4 2 2 2 2 3 3 3 5 8 10 12 7 10 9 11 9 8 10 10 9 8 8 8 8 6 5 6 6
7 8 8 9 9 9 8 7 7 7 6 6 5 5 5 5 5 5 5 5 5 8 9 7 4 2 2 2 2 2 3 4 6 8 9 10 8 9 7 7 10 7 9 11 13 8 9 8 7 7 7 7 6 6
8 8 9 9 9 9 8 8 7 7 6 6 5 5 5 5 6 6 8 3 4 4 9 10 3 3 2 1 3 3 4 5 7 8 8 7 5 8 11 11 7 5 5 7 9 7 7 8 8 7 7 7 7 7
8 9 9 9 9 9 8 7 7 6 6 5 5 5 5 6 5 6 6 5 3 4 9 10 7 3 2 2 3 4 3 5 6 8 8 7 7 6 9 11 6 6 6 6 6 7 8 8 9 7 6 7 7 7
9 9 10 10 9 9 9 7 7 6 5 5 5 5 6 4 5 6 3 3 3 6 7 10 8 6 2 5 7 4 6 6 6 7 7 8 7 7 11 7 5 5 6 6 7 6 8 7 7 7 7 7 10 9
9 10 10 10 10 10 9 7 6 6 5 5 5 5 5 5 6 5 4 3 3 5 9 9 10 9 3 5 4 5 5 10 6 9 8 6 7 11 8 6 5 5 6 7 8 8 8 8 7 8 9 9 10 10
9 10 10 10 9 9 8 7 6 6 6 5 5 5 6 6 6 4 5 6 7 6 7 9 5 9 5 6 6 7 6 9 11 8 5 8 9 5 5 4 4 4 4 6 8 9 9 9 9 8 9 10 10 9
9 10 10 10 10 9 7 6 6 6 5 6 8 8 6 4 5 5 7 8 8 9 7 6 6 8 4 8 8 6 7 8 11 9 8 10 9 6 4 4 3 3 3 5 6 7 8 9 8 8 9 9 10 10
10 10 10 10 9 8 7 7 7 6 7 8 8 7 6 7 8 9 8 7 8 9 6 7 7 6 6 4 8 6 9 7 11 4 8 11 7 5 4 4 3 3 3 4 6 8 9 8 7 8 8 8 10 10
10 10 10 10 9 7 7 7 7 6 6 6 8 10 9 8 12 11 11 8 9 8 7 7 8 7 5 6 8 9 11 11 6 8 9 8 6 4 4 3 3 3 3 3 5 7 8 9 8 8 8 8 8 10
10 10 10 9 8 7 7 7 6 6 7 9 11 12 11 11 9 8 8 8 6 6 6 5 6 7 7 9 9 12 9 8 11 12 11 7 6 4 4 3 3 4 3 3 4 7 8 8 9 8 8 9 8 9
10 10 9 8 8 7 7 7 7 6 7 10 10 14 10 7 6 5 4 4 3 4 4 5 6 5 8 10 10 10 12 13 11 10 8 5 4 4 4 4 4 3 3 3 3 5 6 7 8 8 8 9 9 9
10 10 8 9 8 7 7 6 5 5 7 9 10 11 8 9 8 7 6 5 3 3 3 5 7 8 10 10 12 12 12 14 10 7 6 4 4 3 4 3 3 3 3 2 2 3 4 5 7 7 7 8 9 9
10 8 9 8 7 7 7 6 7 10 9 10 9 7 8 8 9 7 6 5 2 4 6 7 10 11 9 11 12 9 12 10 8 6 4 4 4 4 3 3 3 3 3 2 2 2 3 3 4 6 7 7 7 8
9 8 8 7 7 6 6 6 8 9 11 9 10 8 7 7 7 6 4 3 4 4 5 7 6 9 11 12 12 9 8 6 5 5 4 4 3 3 3 3 3 3 3 2 2 2 2 3 4 5 5 5 6 7
8 7 7 7 7 7 9 8 7 11 9 8 7 7 6 6 4 3 3 2 2 2 4 5 8 10 9 7 7 7 6 5 6 4 4 3 3 3 3 3 2 2 3 3 2 2 2 2 3 3 4 4 5 6
8 8 8 8 8 8 11 9 6 9 9 8 6 7 6 5 3 3 3 3 3 4 6 6 7 7 7 5 5 4 4 4 4 5 4 3 3 3 3 4 3 2 2 2 2 4 2 2 2 3 3 4 4 5
9 7 8 7 7 7 8 8 8 7 7 7 6 6 5 4 4 5 4 3 6 7 8 7 7 5 4 4 3 3 4 4 5 5 4 4 3 3 3 3 3 3 3 3 3 3 3 3 2 2 3 3 3 4
6 8 6 8 8 9 8 6 7 6 6 6 6 5 6 7 6 5 3 6 7 7 6 7 6 6 6 5 4 4 4 5 4 4 5 5 4 3 3 3 3 4 3 3 3 3 2 2 1 2 2 3 3 4
8 8 8 9 11 10 11 5 8 6 9 8 5 6 6 5 4 3 6 6 6 5 5 6 6 6 6 5 5 5 5 7 7 6 5 4 3 3 2 2 2 4 4 4 2 2 2 4 2 1 2 3 4 4
9 10 11 11 10 11 8 8 6 7 6 7 7 8 7 5 4 6 8 7 6 6 6 6 6 7 6 6 8 8 7 8 9 9 7 5 4 3 3 3 2 2 2 1 3 3 2 2 3 1 2 2 3 4
13 14 12 14 9 11 11 10 9 8 10 8 8 7 6 4 7 8 10 8 8 8 7 6 7 7 7 8 8 7 7 8 9 10 8 7 5 4 3 3 2 2 1 2 3 3 3 2 2 2 2 2 3 4
16 13 13 11 10 10 9 10 10 9 8 9 7 5 5 7 9 10 8 8 8 8 7 7 8 8 8 7 8 8 8 7 7 9 9 7 7 7 7 6 5 3 1 3 3 3 3 2 2 2 2 2 7 3
15 14 10 7 6 6 7 6 5 7 9 9 7 7 7 10 10 8 6 5 7 7 6 6 6 7 7 7 6 5 5 5 6 7 7 7 7 7 9 9 9 7 5 4 2 2 2 2 2 2 2 1 2 2
11 10 11 9 8 6 9 7 8 8 7 5 6 9 10 9 9 6 6 5 5 5 5 5 5 6 6 6 6 6 7 6 5 5 6 6 7 7 9 9 8 9 6 4 5 3 2 2 2 2 2 2 2 2
10 8 8 9 9 9 8 7 7 5 3 4 6 7 8 6 6 5 5 5 4 5 6 6 6 5 5 5 5 6 6 7 9 10 9 9 8 8 8 8 8 8 7 6 7 7 3 3 2 2 2 1 1 1
9 7 8 8 9 8 5 3 4 3 2 3 3 5 6 6 4 3 4 4 6 6 6 6 5 5 6 6 7 7 6 6 6 9 11 11 10 9 9 8 8 8 8 7 6 3 8 4 5 3 4 4 5 6
7 6 7 6 6 4 4 3 3 2 2 4 4 5 7 7 6 5 5 5 5 6 6 7 6 6 6 7 7 8 8 7 7 8 9 8 8 8 8 8 8 7 8 8 7 6 5 4 3 5 5 6 6 7
6 6 6 8 6 3 3 4 4 5 6 6 6 6 6 7 8 8 6 6 7 8 8 8 7 7 6 6 6 6 8 6 7 8 9 8 8 8 7 7 7 7 8 9 10 9 8 9 9 8 7 7 7 7
6 5 5 5 6 6 4 4 5 6 6 6 6 6 6 7 9 7 6 6 7 7 7 7 6 6 5 6 6 6 7 6 7 9 9 10 10 10 8 8 7 8 9 9 9 10 11 12 12 12 12 11 10 10